User: anonymous   Login
Location: Codford Saint Peter
(51.1597°N, 2.0531°W)
Time: 01:25:25
(UTC+00:00)
Language:

Cosmos 2285 Rocket - Orbit

View from above orbital plane
View from above orbital plane
View from above satellite
View from above satellite

Ground track
Ground track

The orbit data is extracted from the following two-line orbital elements,

1 23190U 94045B   20328.84254093  .00000059  00000-0  86775-4 0  9998
2 23190  74.0279 181.7673 0019994 234.7682 125.1566 13.74092446319697
Epoch (UTC): 23 November 2020 20:13:15
Eccentricity: 0.0019994
inclination: 74.0279°
perigee height: 970 km
apogee height: 999 km
right ascension of ascending node: 181.7673°
argument of perigee: 234.7682°
revolutions per day: 13.74092446
mean anomaly at epoch: 125.1566°
orbit number at epoch: 31969

The dashed part of the orbit path shows where the satellite is in the earth's shadow,  

DLR